This is the latest recevied weather packets stored in our database for station/object 9M8ZAL-13. If no packets are shown the sender has not sent any weather packets the latest 10 day(s).
| Time | Temp. | Humidity | Pressure | Rain* | Wind** | Luminosity | Snow |
|---|---|---|---|---|---|---|---|
| 1777611203 | 32.22° C | - | 1008 hPa | - | - | 1006 W/m² | - |
| 1777610603 | 32.22° C | - | 1008.2 hPa | - | - | 1003 W/m² | - |
| 1777610003 | 31.67° C | - | 1008.4 hPa | - | - | 1005 W/m² | - |
| 1777609403 | 31.67° C | - | 1008.6 hPa | - | - | 1005 W/m² | - |
| 1777608803 | 31.67° C | - | 1008.7 hPa | - | - | 1006 W/m² | - |
| 1777608203 | 31.11° C | - | 1008.8 hPa | - | - | 1006 W/m² | - |
| 1777607603 | 31.67° C | - | 1009 hPa | - | - | 1007 W/m² | - |
| 1777606403 | 31.11° C | - | 1009.4 hPa | - | - | 1008 W/m² | - |
| 1777605803 | 31.11° C | - | 1009.3 hPa | - | - | 1009 W/m² | - |
| 1777605203 | 30.56° C | - | 1009.6 hPa | - | - | 1008 W/m² | - |
| 1777604603 | 30.56° C | - | 1009.8 hPa | - | - | 1008 W/m² | - |
| 1777604003 | 30° C | - | 1009.9 hPa | - | - | 1008 W/m² | - |
| 1777603403 | 30° C | - | 1010 hPa | - | - | 1008 W/m² | - |
| 1777602803 | 29.44° C | - | 1010.3 hPa | - | - | 1007 W/m² | - |
| 1777602203 | 29.44° C | - | 1010.2 hPa | - | - | 1006 W/m² | - |
| 1777601603 | 28.89° C | - | 1010.2 hPa | - | - | 1006 W/m² | - |
| 1777601002 | 28.33° C | - | 1010 hPa | - | - | 1006 W/m² | - |
| 1777600403 | 28.33° C | - | 1010 hPa | - | - | 1005 W/m² | - |
| 1777599803 | 28.89° C | - | 1010 hPa | - | - | 1005 W/m² | - |
| 1777599203 | 28.89° C | - | 1010.1 hPa | - | - | 1005 W/m² | - |
| 1777598602 | 28.33° C | - | 1010.1 hPa | - | - | 1004 W/m² | - |
| 1777598005 | 27.78° C | - | 1010.2 hPa | - | - | 1004 W/m² | - |
| 1777597403 | 28.33° C | - | 1010.3 hPa | - | - | 1004 W/m² | - |
| 1777596802 | 27.22° C | - | 1010.1 hPa | - | - | 1004 W/m² | - |
| 1777595002 | 28.33° C | - | 1010.3 hPa | - | - | 1003 W/m² | - |
* Rain since midnight (hover to see other rain measurements)
** Current wind speed in m/s (hover to see current wind gust speed)